{"data":{"norad_id":49736,"epoch":"2026-09-19T18:51:34.963776Z","epoch_age_seconds":106682,"freshness":"FRESH","line1":"1 49736U 21115N   26262.78582134  .00000595  00000+0  28745-4 0  9993","line2":"2 49736  53.1614 344.7993 0001210  88.0370 272.0772 15.34393098265016","mean_motion":15.34393098,"eccentricity":0.000121,"inclination_deg":53.1614,"raan_deg":344.7993,"arg_perigee_deg":88.037,"mean_anomaly_deg":272.0772,"bstar":2.8745e-5,"rev_number":26501,"period_min":93.84818022689,"perigee_km":461.89601033124,"apogee_km":463.55149863383,"semimajor_km":6840.8607544825,"source":"CELESTRAK","updated_at":"2026-09-20T09:00:39.405176Z"}}